Location: Fort Wayne
(41.1310°N, 85.1290°W)
Time: 18:31:30
(UTC-04:00)

Cosmos 1000 Rocket - Visible Passes

Search period start: 28 July 2014 00:00
Search period end: 07 August 2014 00:00
Orbit: 955 x 992 km, 82.9° (Epoch: 26 July)

Date Brightness Start Highest point End Pass type
(mag) Time Alt. Az. Time Alt. Az. Time Alt. Az.
28 Jul 4.4 01:17:27 83° E 01:17:29 83° E 01:23:49 10° N visible
28 Jul 6.5 03:02:04 14° W 03:03:37 15° WNW 03:07:10 10° NNW visible
28 Jul 5.9 23:57:26 22° E 23:57:30 22° E 00:02:05 10° NE visible
29 Jul 4.8 01:42:03 56° W 01:42:18 57° W 01:48:31 10° N visible
30 Jul 5.2 00:22:00 38° E 00:22:00 38° E 00:27:42 10° NNE visible
30 Jul 5.6 02:06:37 32° W 02:07:17 32° WNW 02:12:54 10° N visible
31 Jul 4.5 00:46:34 69° E 00:46:34 69° E 00:52:49 10° NNE visible
31 Jul 6.3 02:31:11 18° W 02:32:29 19° WNW 02:36:45 10° NNW visible
31 Jul 6.1 23:26:31 18° E 23:26:41 18° E 23:30:40 10° NE visible
01 Aug 4.6 01:11:07 68° W 01:11:18 69° W 01:17:37 10° N visible
01 Aug 5.4 23:51:03 32° E 23:51:04 32° E 23:56:32 10° NNE visible
02 Aug 5.4 01:35:40 38° W 01:36:14 39° WNW 01:42:07 10° N visible
03 Aug 4.6 00:15:35 57° E 00:15:37 57° E 00:21:47 10° NNE visible
03 Aug 6.1 02:00:11 21° W 02:01:21 22° WNW 02:06:11 10° NNW visible
03 Aug 6.2 22:55:29 14° E 22:55:53 14° E 22:59:04 10° NE visible
04 Aug 4.4 00:40:06 80° WSW 00:40:19 82° W 00:46:41 10° N visible
04 Aug 6.8 02:24:42 11° W 02:26:41 12° WNW 02:29:10 10° NW visible
04 Aug 5.6 23:19:59 26° E 23:20:13 27° E 23:25:19 10° NNE visible
05 Aug 5.1 01:04:35 45° W 01:05:12 47° WNW 01:11:17 10° N visible
05 Aug 4.8 23:44:28 47° E 23:44:42 47° E 23:50:43 10° NNE visible
06 Aug 6.0 01:29:04 25° W 01:30:16 27° WNW 01:35:31 10° NNW visible
06 Aug 6.4 22:24:19 11° E 22:25:07 12° ENE 22:27:02 10° ENE visible
